Location: Capannuccia
(43.7000°N, 11.3000°E)
Time: 21:42:43
(UTC+00:00)

Envisat - Pass Details

Date: 09 August 2021
Orbit: 764 x 766 km, 98.2° (Epoch: 17 September)

Event Time Altitude Azimuth Distance (km) Brightness Sun altitude
Rises 03:07:02 0° 33° (NNE) 3,241 7.7 -11.2°
Reaches altitude 10° 03:10:42 10° 60° (ENE) 2,307 7.1 -10.6°
Maximum altitude 03:13:02 13° 88° (E) 2,090 6.2 -10.3°
Drops below altitude 10° 03:15:23 10° 116° (ESE) 2,299 5.9 -9.9°
Sets 03:19:00 0° 143° (SE) 3,218 6.3 -9.4°
